QPF
0.11 0.11 0.09 0.07 0.07 0.09 0.12 0.13 0.13 0.12 0.11 0.10 0.08 0.08 0.08 0.08 0.07 0.05 0.06 0.05 0.03 0.03 0.04 0.06 0.07 0.08 0.07 0.06 0.05 0.04 0.04 0.04 0.04 0.05 0.04 0.05 0.05 0.06
0.10 0.09 0.09 0.09 0.09 0.09 0.11 0.13 0.13 0.14 0.13 0.11 0.09 0.07 0.06 0.04 0.04 0.04 0.04 0.03 0.02 0.02 0.02 0.03 0.03 0.03 0.04 0.04 0.05 0.05 0.05 0.06 0.06 0.07 0.06 0.05 0.05 0.06
0.08 0.09 0.10 0.09 0.09 0.09 0.10 0.10 0.11 0.12 0.13 0.12 0.08 0.05 0.03 0.02 0.03 0.03 0.02 0.02 0.03 0.04 0.04 0.03 0.03 0.03 0.03 0.04 0.04 0.05 0.06 0.06 0.06 0.06 0.05 0.05 0.05 0.05
0.07 0.08 0.08 0.08 0.09 0.09 0.10 0.09 0.10 0.10 0.09 0.08 0.06 0.04 0.03 0.02 0.03 0.02 0.02 0.03 0.04 0.06 0.05 0.04 0.03 0.04 0.05 0.05 0.06 0.07 0.07 0.07 0.07 0.06 0.06 0.07 0.07 0.06
0.10 0.09 0.08 0.08 0.09 0.11 0.09 0.07 0.07 0.06 0.07 0.06 0.05 0.04 0.04 0.03 0.03 0.03 0.04 0.05 0.04 0.05 0.04 0.03 0.03 0.03 0.04 0.04 0.04 0.04 0.04 0.05 0.05 0.06 0.07 0.07 0.06 0.05
0.09 0.08 0.08 0.08 0.07 0.06 0.06 0.06 0.06 0.06 0.06 0.06 0.05 0.05 0.04 0.04 0.04 0.04 0.05 0.05 0.04 0.03 0.03 0.03 0.03 0.04 0.04 0.04 0.04 0.04 0.05 0.05 0.06 0.05 0.05 0.04 0.03 0.03
0.09 0.07 0.07 0.07 0.07 0.07 0.08 0.10 0.12 0.11 0.09 0.07 0.06 0.06 0.05 0.04 0.04 0.04 0.04 0.04 0.03 0.03 0.04 0.04 0.04 0.05 0.06 0.07 0.06 0.05 0.05 0.05 0.05 0.05 0.04 0.04 0.03 0.03
0.06 0.06 0.05 0.06 0.06 0.07 0.11 0.14 0.17 0.19 0.19 0.18 0.17 0.15 0.11 0.06 0.04 0.04 0.04 0.04 0.06 0.07 0.07 0.07 0.08 0.08 0.08 0.06 0.05 0.03 0.03 0.03 0.03 0.03 0.03 0.03 0.03 0.03
0.04 0.05 0.05 0.05 0.05 0.04 0.05 0.07 0.10 0.13 0.16 0.19 0.21 0.20 0.16 0.11 0.08 0.06 0.06 0.06 0.06 0.07 0.07 0.07 0.07 0.06 0.05 0.05 0.06 0.05 0.03 0.03 0.03 0.03 0.04 0.04 0.04 0.04
0.03 0.03 0.04 0.04 0.04 0.04 0.04 0.04 0.04 0.05 0.08 0.09 0.10 0.11 0.10 0.09 0.09 0.08 0.08 0.06 0.05 0.05 0.05 0.05 0.05 0.05 0.05 0.05 0.06 0.05 0.04 0.04 0.03 0.03 0.04 0.04 0.05 0.04
0.04 0.04 0.04 0.03 0.04 0.05 0.08 0.09 0.10 0.10 0.11 0.11 0.10 0.10 0.10 0.09 0.08 0.09 0.10 0.10 0.08 0.06 0.06 0.05 0.05 0.04 0.04 0.03 0.03 0.03 0.03 0.04 0.04 0.04 0.04 0.03 0.04 0.05
0.04 0.04 0.03 0.04 0.05 0.06 0.08 0.10 0.11 0.11 0.10 0.11 0.12 0.14 0.16 0.17 0.16 0.14 0.13 0.12 0.09 0.07 0.06 0.05 0.05 0.04 0.03 0.02 0.01 0.01 0.02 0.02 0.03 0.03 0.04 0.05 0.06 0.07
0.03 0.03 0.03 0.03 0.02 0.03 0.03 0.03 0.03 0.03 0.03 0.04 0.04 0.05 0.06 0.07 0.09 0.09 0.09 0.07 0.06 0.05 0.04 0.04 0.03 0.02 0.03 0.02 0.02 0.02 0.02 0.02 0.02 0.03 0.04 0.05 0.06 0.08
0.03 0.03 0.03 0.04 0.04 0.03 0.02 0.02 0.01 0.01 0.01 0.01 0.01 0.01 0.01 0.02 0.02 0.02 0.03 0.03 0.04 0.03 0.03 0.03 0.02 0.02 0.02 0.02 0.03 0.02 0.02 0.02 0.02 0.03 0.04 0.04 0.05 0.06
0.03 0.03 0.03 0.03 0.03 0.02 0.01 0.02 0.02 0.02 0.02 0.02 0.02 0.01 0.02 0.02 0.02 0.02 0.02 0.03 0.03 0.02 0.02 0.02 0.03 0.03 0.03 0.03 0.03 0.03 0.02 0.02 0.02 0.03 0.04 0.05 0.05 0.06
0.01 0.02 0.02 0.01 0.01 0.01 0.01 0.02 0.02 0.02 0.02 0.02 0.02 0.02 0.02 0.02 0.02 0.03 0.03 0.03 0.03 0.03 0.02 0.02 0.02 0.03 0.03 0.02 0.02 0.02 0.02 0.02 0.02 0.03 0.03 0.04 0.05 0.05
0.01 0.01 0.01 0.01 0.01 0.01 0.02 0.02 0.03 0.02 0.03 0.03 0.04 0.04 0.04 0.04 0.03 0.03 0.04 0.04 0.04 0.04 0.04 0.03 0.02 0.02 0.02 0.02 0.02 0.03 0.03 0.02 0.03 0.03 0.04 0.05 0.05 0.05
0.01 0.01 0.01 0.01 0.01 0.02 0.03 0.04 0.04 0.03 0.03 0.04 0.04 0.05 0.05 0.05 0.05 0.04 0.04 0.04 0.03 0.03 0.04 0.03 0.03 0.02 0.02 0.02 0.02 0.03 0.04 0.04 0.04 0.04 0.05 0.06 0.07 0.05
0.01 0.01 0.01 0.01 0.01 0.01 0.02 0.03 0.04 0.04 0.04 0.04 0.04 0.04 0.05 0.05 0.05 0.05 0.04 0.04 0.03 0.03 0.02 0.02 0.02 0.03 0.03 0.02 0.02 0.01 0.02 0.03 0.04 0.06 0.07 0.08 0.09 0.08
0.00 0.00 0.00 0.01 0.01 0.01 0.01 0.02 0.03 0.03 0.03 0.03 0.03 0.03 0.03 0.03 0.03 0.04 0.04 0.04 0.03 0.03 0.02 0.02 0.02 0.02 0.03 0.03 0.02 0.02 0.02 0.03 0.05 0.08 0.10 0.10 0.10 0.10
0.01 0.01 0.01 0.01 0.01 0.01 0.01 0.01 0.01 0.01 0.02 0.02 0.02 0.02 0.02 0.02 0.03 0.03 0.03 0.03 0.03 0.03 0.02 0.02 0.02 0.02 0.02 0.03 0.03 0.03 0.03 0.03 0.04 0.04 0.05 0.07 0.08 0.09
0.01 0.01 0.01 0.01 0.01 0.01 0.01 0.02 0.02 0.01 0.01 0.02 0.02 0.02 0.02 0.03 0.03 0.03 0.03 0.03 0.03 0.03 0.03 0.02 0.02 0.02 0.03 0.04 0.04 0.04 0.04 0.03 0.03 0.02 0.02 0.02 0.03 0.04
0.01 0.01 0.01 0.01 0.01 0.01 0.01 0.01 0.01 0.02 0.02 0.02 0.02 0.02 0.02 0.02 0.03 0.03 0.03 0.03 0.03 0.03 0.03 0.03 0.03 0.02 0.03 0.03 0.03 0.03 0.02 0.02 0.02 0.03 0.03 0.02 0.02 0.02
MSLP
1013.10 1013.15 1013.25 1013.37 1013.47 1013.54 1013.56 1013.53 1013.47 1013.43 1013.43 1013.51 1013.69 1013.97 1014.32 1014.70 1015.08 1015.39 1015.60 1015.68 1015.62 1015.44 1015.17 1014.85 1014.52 1014.22 1013.96 1013.75 1013.60 1013.48 1013.38 1013.30 1013.22 1013.15 1013.10 1013.08 1013.11 1013.20
1012.55 1012.61 1012.73 1012.88 1013.02 1013.13 1013.18 1013.20 1013.19 1013.20 1013.25 1013.38 1013.61 1013.95 1014.35 1014.80 1015.24 1015.61 1015.88 1016.01 1016.00 1015.86 1015.62 1015.33 1015.01 1014.70 1014.43 1014.22 1014.05 1013.92 1013.82 1013.73 1013.65 1013.58 1013.53 1013.51 1013.54 1013.63
1012.09 1012.15 1012.28 1012.43 1012.59 1012.72 1012.80 1012.85 1012.87 1012.91 1013.00 1013.17 1013.44 1013.81 1014.27 1014.76 1015.26 1015.69 1016.03 1016.24 1016.30 1016.24 1016.07 1015.82 1015.55 1015.28 1015.04 1014.84 1014.68 1014.55 1014.45 1014.36 1014.29 1014.22 1014.17 1014.16 1014.19 1014.26
1011.76 1011.80 1011.90 1012.05 1012.20 1012.33 1012.42 1012.48 1012.52 1012.58 1012.69 1012.88 1013.17 1013.57 1014.05 1014.58 1015.12 1015.61 1016.02 1016.31 1016.47 1016.51 1016.44 1016.29 1016.11 1015.91 1015.72 1015.55 1015.42 1015.31 1015.21 1015.13 1015.06 1014.99 1014.95 1014.93 1014.95 1015.01
1011.52 1011.52 1011.60 1011.71 1011.85 1011.96 1012.05 1012.12 1012.17 1012.24 1012.35 1012.55 1012.84 1013.23 1013.71 1014.25 1014.81 1015.35 1015.83 1016.21 1016.48 1016.64 1016.69 1016.67 1016.59 1016.49 1016.38 1016.28 1016.18 1016.10 1016.02 1015.94 1015.88 1015.82 1015.77 1015.76 1015.77 1015.82
1011.37 1011.32 1011.35 1011.42 1011.53 1011.63 1011.71 1011.77 1011.83 1011.90 1012.01 1012.18 1012.45 1012.82 1013.28 1013.80 1014.37 1014.93 1015.46 1015.92 1016.30 1016.58 1016.78 1016.90 1016.96 1016.97 1016.96 1016.93 1016.89 1016.84 1016.79 1016.73 1016.67 1016.61 1016.58 1016.56 1016.57 1016.61
1011.27 1011.17 1011.14 1011.17 1011.24 1011.32 1011.39 1011.45 1011.50 1011.56 1011.66 1011.81 1012.04 1012.36 1012.77 1013.26 1013.80 1014.37 1014.93 1015.45 1015.93 1016.34 1016.67 1016.94 1017.14 1017.29 1017.39 1017.45 1017.48 1017.48 1017.45 1017.42 1017.38 1017.34 1017.31 1017.31 1017.33 1017.38
1011.21 1011.04 1010.95 1010.94 1010.97 1011.02 1011.08 1011.14 1011.19 1011.24 1011.32 1011.44 1011.62 1011.89 1012.24 1012.66 1013.16 1013.71 1014.28 1014.85 1015.40 1015.92 1016.38 1016.78 1017.12 1017.40 1017.62 1017.78 1017.88 1017.95 1017.97 1017.97 1017.97 1017.96 1017.96 1017.97 1018.02 1018.08
1011.17 1010.94 1010.79 1010.72 1010.71 1010.73 1010.78 1010.83 1010.88 1010.92 1010.98 1011.07 1011.21 1011.41 1011.69 1012.06 1012.50 1013.01 1013.57 1014.16 1014.76 1015.36 1015.93 1016.45 1016.91 1017.31 1017.64 1017.90 1018.09 1018.23 1018.31 1018.37 1018.41 1018.44 1018.48 1018.54 1018.61 1018.70
1011.16 1010.85 1010.64 1010.51 1010.45 1010.44 1010.47 1010.50 1010.55 1010.59 1010.63 1010.70 1010.80 1010.96 1011.18 1011.48 1011.86 1012.32 1012.86 1013.45 1014.08 1014.73 1015.37 1015.98 1016.54 1017.04 1017.47 1017.82 1018.09 1018.30 1018.46 1018.58 1018.68 1018.78 1018.87 1018.98 1019.09 1019.22
1011.16 1010.79 1010.50 1010.30 1010.18 1010.13 1010.12 1010.14 1010.17 1010.21 1010.25 1010.31 1010.39 1010.51 1010.69 1010.95 1011.28 1011.71 1012.21 1012.79 1013.43 1014.10 1014.77 1015.44 1016.06 1016.63 1017.13 1017.55 1017.90 1018.19 1018.42 1018.61 1018.78 1018.93 1019.09 1019.25 1019.41 1019.57
1011.19 1010.73 1010.36 1010.08 1009.88 1009.77 1009.71 1009.70 1009.72 1009.75 1009.80 1009.86 1009.95 1010.07 1010.24 1010.47 1010.79 1011.19 1011.67 1012.23 1012.85 1013.51 1014.19 1014.87 1015.52 1016.12 1016.66 1017.13 1017.53 1017.88 1018.17 1018.43 1018.67 1018.89 1019.10 1019.31 1019.51 1019.71
1011.22 1010.68 1010.21 1009.83 1009.54 1009.35 1009.23 1009.18 1009.17 1009.20 1009.26 1009.34 1009.45 1009.60 1009.79 1010.05 1010.37 1010.76 1011.23 1011.77 1012.37 1013.00 1013.66 1014.31 1014.95 1015.54 1016.08 1016.57 1017.00 1017.39 1017.73 1018.04 1018.33 1018.61 1018.88 1019.13 1019.37 1019.59
1011.25 1010.61 1010.03 1009.55 1009.16 1008.87 1008.68 1008.57 1008.53 1008.55 1008.62 1008.73 1008.89 1009.09 1009.33 1009.63 1009.98 1010.40 1010.87 1011.40 1011.97 1012.56 1013.17 1013.78 1014.36 1014.91 1015.43 1015.90 1016.33 1016.73 1017.10 1017.44 1017.78 1018.10 1018.41 1018.69 1018.96 1019.20
1011.24 1010.51 1009.84 1009.24 1008.74 1008.35 1008.06 1007.88 1007.80 1007.80 1007.88 1008.03 1008.24 1008.50 1008.82 1009.18 1009.59 1010.05 1010.54 1011.06 1011.61 1012.16 1012.71 1013.25 1013.76 1014.25 1014.71 1015.14 1015.54 1015.93 1016.30 1016.67 1017.03 1017.38 1017.71 1018.03 1018.32 1018.58
1011.20 1010.39 1009.62 1008.92 1008.31 1007.82 1007.43 1007.17 1007.03 1007.00 1007.08 1007.25 1007.51 1007.84 1008.23 1008.66 1009.14 1009.65 1010.17 1010.70 1011.23 1011.74 1012.23 1012.70 1013.14 1013.55 1013.94 1014.31 1014.67 1015.03 1015.40 1015.77 1016.14 1016.51 1016.87 1017.21 1017.52 1017.80
1011.12 1010.26 1009.42 1008.64 1007.93 1007.33 1006.85 1006.50 1006.29 1006.21 1006.26 1006.43 1006.71 1007.09 1007.54 1008.05 1008.59 1009.15 1009.71 1010.26 1010.77 1011.26 1011.70 1012.11 1012.47 1012.81 1013.14 1013.45 1013.77 1014.10 1014.45 1014.82 1015.20 1015.59 1015.97 1016.33 1016.66 1016.97
1011.03 1010.14 1009.27 1008.43 1007.65 1006.96 1006.39 1005.95 1005.64 1005.49 1005.48 1005.62 1005.89 1006.28 1006.76 1007.31 1007.90 1008.50 1009.09 1009.66 1010.19 1010.66 1011.08 1011.45 1011.77 1012.06 1012.34 1012.62 1012.90 1013.22 1013.56 1013.93 1014.31 1014.71 1015.11 1015.50 1015.86 1016.19
1010.94 1010.07 1009.20 1008.33 1007.51 1006.76 1006.10 1005.55 1005.15 1004.90 1004.81 1004.87 1005.09 1005.45 1005.92 1006.47 1007.07 1007.70 1008.32 1008.92 1009.46 1009.94 1010.36 1010.73 1011.04 1011.32 1011.58 1011.84 1012.13 1012.43 1012.78 1013.15 1013.55 1013.97 1014.39 1014.80 1015.18 1015.54
1010.89 1010.08 1009.23 1008.38 1007.53 1006.73 1006.00 1005.36 1004.84 1004.47 1004.26 1004.21 1004.34 1004.62 1005.03 1005.55 1006.14 1006.77 1007.41 1008.03 1008.61 1009.12 1009.57 1009.96 1010.30 1010.60 1010.89 1011.17 1011.47 1011.80 1012.16 1012.55 1012.96 1013.39 1013.83 1014.25 1014.66 1015.04
1010.90 1010.16 1009.38 1008.55 1007.71 1006.88 1006.08 1005.34 1004.71 1004.21 1003.86 1003.68 1003.67 1003.84 1004.16 1004.61 1005.16 1005.77 1006.42 1007.06 1007.67 1008.24 1008.75 1009.20 1009.60 1009.96 1010.29 1010.62 1010.96 1011.32 1011.70 1012.11 1012.54 1012.98 1013.42 1013.85 1014.25 1014.64
1010.95 1010.30 1009.59 1008.82 1007.99 1007.14 1006.29 1005.48 1004.73 1004.10 1003.60 1003.27 1003.12 1003.15 1003.35 1003.71 1004.20 1004.78 1005.42 1006.08 1006.74 1007.37 1007.95 1008.47 1008.95 1009.39 1009.80 1010.19 1010.58 1010.97 1011.38 1011.80 1012.23 1012.67 1013.10 1013.52 1013.91 1014.28
1011.02 1010.46 1009.83 1009.11 1008.31 1007.46 1006.57 1005.69 1004.85 1004.10 1003.46 1002.99 1002.69 1002.58 1002.67 1002.93 1003.35 1003.88 1004.51 1005.19 1005.89 1006.57 1007.23 1007.84 1008.41 1008.93 1009.41 1009.86 1010.29 1010.72 1011.14 1011.56 1011.98 1012.40 1012.80 1013.18 1013.54 1013.88
Thickness
5736 5734 5733 5734 5733 5733 5731 5728 5722 5717 5716 5717 5715 5715 5712 5710 5708 5707 5705 5703 5701 5700 5698 5696 5695 5693 5691 5689 5687 5685 5683 5681 5678 5676 5674 5672 5670 5668
5731 5729 5729 5730 5730 5729 5727 5725 5722 5717 5713 5714 5710 5709 5706 5705 5702 5700 5698 5696 5694 5692 5691 5689 5687 5685 5683 5681 5678 5676 5674 5672 5670 5668 5665 5663 5661 5659
5727 5726 5724 5724 5724 5723 5722 5720 5717 5714 5708 5707 5706 5703 5699 5698 5696 5694 5693 5691 5688 5685 5683 5681 5678 5676 5674 5672 5670 5668 5665 5663 5660 5658 5656 5654 5651 5649
5721 5720 5720 5720 5718 5718 5716 5714 5712 5709 5705 5699 5698 5696 5692 5691 5689 5687 5687 5685 5681 5677 5675 5672 5670 5668 5665 5663 5660 5658 5656 5653 5651 5649 5647 5644 5641 5639
5717 5715 5714 5713 5712 5711 5710 5708 5707 5705 5701 5697 5694 5691 5688 5685 5682 5680 5679 5676 5674 5670 5667 5664 5661 5658 5656 5653 5651 5648 5646 5644 5641 5639 5636 5634 5631 5629
5711 5710 5708 5707 5705 5704 5703 5701 5699 5697 5695 5692 5689 5685 5681 5678 5675 5673 5671 5669 5667 5665 5660 5656 5652 5649 5646 5643 5641 5638 5635 5633 5631 5628 5626 5623 5620 5618
5704 5703 5702 5699 5697 5697 5697 5694 5692 5690 5688 5685 5682 5679 5675 5671 5669 5669 5665 5661 5658 5656 5652 5649 5646 5642 5638 5634 5631 5628 5626 5623 5620 5618 5615 5613 5610 5608
5698 5696 5695 5692 5690 5687 5686 5684 5683 5683 5681 5679 5676 5672 5668 5666 5663 5661 5658 5653 5649 5646 5643 5640 5638 5635 5631 5628 5622 5619 5616 5613 5610 5608 5606 5603 5600 5598
5691 5689 5689 5686 5683 5682 5679 5676 5674 5672 5670 5671 5668 5665 5661 5659 5656 5653 5649 5646 5642 5639 5635 5632 5629 5626 5622 5618 5613 5609 5606 5603 5600 5598 5596 5594 5591 5589
5684 5681 5679 5677 5675 5674 5673 5671 5668 5665 5662 5661 5658 5656 5654 5650 5648 5645 5641 5636 5633 5630 5626 5624 5621 5617 5614 5609 5603 5600 5597 5594 5591 5589 5586 5584 5582 5579
5677 5673 5671 5668 5664 5663 5664 5662 5660 5656 5652 5648 5646 5643 5641 5639 5637 5636 5633 5630 5625 5622 5618 5615 5612 5609 5605 5602 5596 5591 5588 5585 5582 5579 5577 5575 5573 5570
5669 5666 5660 5658 5654 5653 5655 5653 5650 5648 5646 5643 5638 5635 5633 5630 5627 5625 5624 5622 5618 5614 5609 5606 5603 5599 5596 5594 5590 5584 5580 5577 5574 5571 5569 5566 5564 5563
5663 5659 5653 5647 5645 5644 5644 5643 5640 5638 5638 5635 5633 5630 5627 5623 5620 5617 5614 5612 5610 5606 5602 5597 5594 5592 5588 5586 5583 5579 5576 5572 5568 5565 5561 5559 5556 5554
5654 5651 5645 5639 5636 5635 5634 5631 5630 5629 5631 5629 5626 5623 5619 5616 5612 5608 5604 5600 5598 5595 5591 5588 5586 5583 5580 5577 5575 5573 5570 5566 5563 5560 5557 5552 5549 5547
5644 5637 5634 5631 5630 5628 5625 5623 5623 5623 5622 5620 5617 5614 5611 5607 5603 5599 5595 5590 5588 5585 5582 5578 5576 5574 5571 5569 5568 5565 5563 5560 5557 5554 5551 5548 5546 5543
5636 5631 5627 5624 5623 5621 5619 5618 5617 5615 5614 5611 5608 5605 5602 5599 5595 5592 5588 5585 5582 5578 5574 5569 5566 5564 5563 5561 5560 5558 5555 5553 5550 5547 5545 5543 5541 5539
5629 5627 5624 5622 5619 5617 5615 5612 5610 5607 5604 5602 5599 5596 5593 5589 5586 5583 5579 5576 5573 5570 5567 5563 5559 5556 5554 5551 5550 5549 5547 5546 5543 5541 5537 5536 5536 5534
5621 5620 5617 5615 5613 5611 5608 5605 5602 5598 5595 5593 5590 5587 5584 5580 5577 5573 5570 5567 5564 5561 5558 5555 5552 5549 5546 5546 5541 5541 5539 5538 5537 5534 5531 5530 5529 5528
5614 5613 5609 5607 5604 5602 5599 5596 5593 5589 5585 5583 5580 5577 5574 5571 5568 5564 5561 5558 5555 5552 5548 5545 5543 5540 5538 5538 5536 5531 5531 5530 5528 5526 5525 5523 5522 5521
5607 5605 5601 5599 5596 5593 5590 5587 5584 5581 5577 5574 5571 5568 5565 5562 5559 5557 5553 5548 5545 5542 5540 5537 5534 5531 5529 5527 5527 5526 5521 5521 5520 5518 5517 5516 5516 5513
5599 5596 5593 5591 5587 5584 5580 5577 5574 5572 5568 5565 5563 5559 5557 5554 5551 5549 5545 5538 5535 5535 5532 5529 5525 5520 5520 5519 5519 5519 5517 5512 5510 5508 5508 5508 5508 5507
5591 5588 5584 5582 5578 5575 5571 5568 5565 5563 5560 5557 5555 5551 5549 5546 5543 5540 5538 5534 5530 5527 5524 5522 5518 5515 5513 5513 5512 5511 5510 5508 5503 5500 5498 5497 5497 5498
5584 5580 5577 5573 5570 5566 5563 5560 5557 5555 5552 5549 5546 5543 5540 5537 5535 5532 5529 5526 5523 5520 5517 5515 5512 5510 5508 5507 5506 5505 5504 5503 5502 5499 5496 5491 5488 5486